Overview Statistics Trail Chart Weather Telemetry Raw packets
 

This is the latest recevied weather packets stored in our database for station/object K6POO-1. If no packets are shown the sender has not sent any weather packets the latest 10 day(s).

<< 101 102 103 104 105 106 107 >>
Time Temp. Humidity Pressure Rain* Wind** Luminosity Snow
1787931315 16.67° C 82% 1015.5 hPa 0 mm - 128 W/m² -
1787931010 16.11° C 83% 1015.7 hPa 0 mm - 111 W/m² -
1787930709 15.56° C 85% 1015.7 hPa 0 mm - 83 W/m² -
1787930404 15.56° C 87% 1015.9 hPa 0 mm - 59 W/m² -
1787930099 15° C 88% 1016 hPa 0 mm - 49 W/m² -
1787929796 15° C 89% 1015.6 hPa 0 mm - 47 W/m² -
1787929492 15° C 89% 1015.8 hPa 0 mm - 42 W/m² -
1787929189 15° C 89% 1015.9 hPa 0 mm - 33 W/m² -
1787928884 15° C 89% 1015.8 hPa 0 mm - 27 W/m² -
1787928579 15° C 88% 1015.4 hPa 0 mm - 25 W/m² -
1787928278 15° C 87% 1015.5 hPa 0 mm - 22 W/m² -
1787927976 15.56° C 85% 1015.5 hPa 0 mm - 21 W/m² -
1787927671 15.56° C 85% 1015 hPa 0 mm - 19 W/m² -
1787927371 15.56° C 85% 1014.8 hPa 0 mm - 20 W/m² -
1787927067 15.56° C 85% 1014.5 hPa 0 mm - 19 W/m² -
1787926762 15.56° C 85% 1014.4 hPa 0 mm - 15 W/m² -
1787926461 15.56° C 85% 1014.2 hPa 0 mm - 13 W/m² -
1787926160 15.56° C 85% 1014.2 hPa 0 mm - 11 W/m² -
1787925860 15.56° C 84% 1014.1 hPa 0 mm - 9 W/m² -
1787925560 15.56° C 84% 1014.1 hPa 0 mm - 7 W/m² -
1787925255 15.56° C 85% 1013.9 hPa 0 mm - 5 W/m² -
1787924954 15.56° C 85% 1014.1 hPa 0 mm - 4 W/m² -
1787924648 15.56° C 85% 1013.9 hPa 0 mm - 2 W/m² -
1787924343 15.56° C 85% 1013.8 hPa 0 mm - 1 W/m² -
1787924038 15.56° C 85% 1013.8 hPa 0 mm - 1 W/m² -

* Rain latest hour (hover to see other rain measurements)
** Current wind speed in m/s (hover to see current wind gust speed)